Regional Weather Roundup
Issued by NWS

Home | Current Version | Previous Version | Text Only | Print | Product List | Glossary On
Versions: 1 2 3 4 5 6 7 8 9 10 11 12 13 14 15 16 17 18 19 20 21 22 23 24 25 26 27 28 29 30 31 32 33 34 35 36 37 38 39 40 41 42 43 44 45 46 47 48 49 50
000
ASUS43 KMKX 021011
RWRWI

WISCONSIN REGIONAL WEATHER ROUNDUP
NATIONAL WEATHER SERVICE MILWAUKEE/SULLIVAN WI
500 AM CDT TUE SEP 02 2014

NOTE: "FAIR" INDICATES FEW OR NO CLOUDS BELOW 12,000 FEET WITH NO
SIGNIFICANT WEATHER AND/OR OBSTRUCTIONS TO VISIBILITY.

WIZ001-002-006>008-014>016-023>028-021100-
NORTHWEST WISCONSIN

CITY           SKY/WX    TMP DP  RH WIND       PRES   REMARKS
SUPERIOR ARPT  CLOUDY    53  52  94 SW7       29.81R
ASHLAND        MOCLDY    55  52  89 W8        29.80R
HAYWARD        MOCLDY    50  50 100 CALM      29.82S
SIREN          CLOUDY    53  52  95 CALM      29.83F
RICE LAKE      CLOUDY    57  56  95 NW3       29.84S
LADYSMITH      MOCLDY    55  53  95 CALM      29.85R
EAU CLAIRE     MOCLDY    59  58  96 S5        29.81F
MENOMONIE      CLOUDY    60  58  94 SE3       29.83S
NEW RICHMOND   CLOUDY    60  59  97 SW5       29.83R
OSCEOLA        CLOUDY    60  60 100 NW3       29.87R
$$

WIZ003>005-009-010-017-018-021100-
NORTH CENTRAL WISCONSIN

CITY           SKY/WX    TMP DP  RH WIND       PRES   REMARKS
WOODRUFF       CLEAR     55  53  94 CALM      29.82S
RHINELANDER    CLEAR     52  51  97 W6        29.83S
EAGLE RIVER    MOCLDY    50  50 100 CALM      29.82S FOG
LAND O LAKES   FOG       44  44 100 CALM      29.82F VSB 1/2
PHILLIPS       CLOUDY    53  52  97 S3        29.82S
TOMAHAWK       CLEAR     46  45  97 CALM      29.84R
MEDFORD        CLEAR     55  54  97 SW5       29.83F
MERRILL        CLEAR     48  48 100 CALM      29.83S
$$

WIZ029-030-035-036-043>047-021100-
CENTRAL WISCONSIN

CITY           SKY/WX    TMP DP  RH WIND       PRES   REMARKS
WAUSAU         CLEAR     54  53  97 CALM      29.83R
MOSINEE        CLEAR     52  52 100 CALM      29.85S
MARSHFIELD     CLEAR     55  54  96 CALM      29.85R
STEVENS POINT  PTCLDY    52  51  99 CALM      29.86R
WAUPACA        CLEAR     56  55  95 CALM      29.85R
WAUTOMA        CLEAR     53  53 100 CALM      29.86R
WISC RAPIDS    CLEAR     54  53  97 CALM      29.86S FOG
CAMP DOUGLAS   FOG       52  52 100 CALM      29.85S VSB 1/4
$$

WIZ011>013-019>022-031-037>040-048>050-021100-
NORTHEAST WISCONSIN

CITY           SKY/WX    TMP DP  RH WIND       PRES   REMARKS
ANTIGO         PTCLDY    49  49 100 CALM      29.84S FOG
STURGEON BAY   CLEAR     59  55  88 W6        29.83R
GREEN BAY      CLEAR     54  54 100 S5        29.83S
MANITOWOC      CLEAR     60  59  96 W5        29.84S
APPLETON       CLEAR     55  55 100 SW6       29.85R
CLINTONVILLE   CLEAR     54  54 100 CALM      29.83S
OSHKOSH        CLEAR     61  59  93 SW5       29.85R
$$

WIZ032>034-041-042-053>061-021100-
SOUTHWEST WISCONSIN

CITY           SKY/WX    TMP DP  RH WIND       PRES   REMARKS
LA CROSSE      PTCLDY    61  59  93 S6        29.85R
SPARTA         CLEAR     52  51  97 CALM      29.86S
VIROQUA        FAIR      58  58 100 SW5       29.87F
BOSCOBEL       FOG       59  57  93 SW3       29.87S VSB 1/4
PRAIRIE DU CHI CLEAR     57  56  95 CALM      29.87R
PLATTEVILLE      N/A     60  59  97 CALM      29.89S VSB 1/4
$$

WIZ056-057-062-063-064-067-068-021100-
SOUTH CENTRAL WISCONSIN

CITY           SKY/WX    TMP DP  RH WIND       PRES   REMARKS
BARABOO/DELLS  CLEAR     55  55 100 S3        29.87R
LONE ROCK      FOG       63  59  87 N3        29.87S VSB 1/4
WATERTOWN      PTCLDY    56  56 100 CALM      29.86F
MADISON        CLEAR     58  57  97 CALM      29.87R FOG
MIDDLETON      FAIR      58  58  99 CALM      29.88R
MONROE         CLEAR     61  59  94 W7        29.88S
JANESVILLE     PTCLDY    61  59  94 CALM      29.88S FOG
$$

WIZ051-052-058>065-066-070>072-021100-
SOUTHEAST WISCONSIN

CITY           SKY/WX    TMP DP  RH WIND       PRES   REMARKS
MILWAUKEE      MOCLDY    67  62  84 W3        29.88R
WAUKESHA       PTCLDY    57  57 100 CALM      29.89S
MILWAUKEE/TIMM MOCLDY    61  59  94 S3        29.88R
RACINE         PTCLDY    65  62  90 W6        29.89R
BURLINGTON     FOG       58  58 100 CALM      29.88S VSB 1/4
KENOSHA        MOCLDY    63  62  97 W3        29.88R FOG
FOND DU LAC    CLEAR     59  57  93 SW3       29.86S
SHEBOYGAN      CLEAR     56  55  97 S6        29.85S
WEST BEND      FOG       59  55  88 CALM      29.87R VSB 1/2
JUNEAU         FOG       56  56 100 CALM      29.87F VSB 3/4
$$

LSZ147-162-021100-
LAKE SUPERIOR

STATION/POSITION TIME  TEMP    WIND        PRES    WAVE
                       AIR SEA DIR/SP/G            HT/PER
                 (UTC) (F)     (DEG/KT/KT) (MB)    (FT/S)
W MID LAKE BUOY  0950   59 57  220/  8/ 10 1007.4R   1/ 3
DEVILS ISLAND    1000   62     250/ 15/ 19 1008.1R
PORT WING        0940   58     180/  3/  6 1009.1R
SAXON HARBOR     0900   58     190/  5/  8 1008.5S
$$

LMZ867-665-643>646-021100-
LAKE MICHIGAN

STATION/POSITION TIME  TEMP    WIND        PRES    WAVE
                       AIR SEA DIR/SP/G            HT/PER
                 (UTC) (F)     (DEG/KT/KT) (MB)    (FT/S)
N MID LAKE BUOY  0950   65 65  260/ 12/ 14 1008.7R   2/ 6
NORTHPORT PIER   0900   62     270/  3/  6 1008.8R
KEWAUNEE LAKESHO 0900   60     300/  5/  6 1009.1R
SHEBOYGAN LAKESH 1000   63 48  240/  7/  8 1010.8R
ATWATER BUOY     1000   67     240/  6/  8 1012.6
MILWAUKEE LAKESH 0900   68     280/  6/  7   N/A
S MID LAKE BUOY  0950   69 70  270/  6/  8 1011.1R   1/ 4
KENOSHA   LAKESH 1000   67     280/  7/  9 1011.2S
$$

TC  - TEMPERATURE IN CELSIUS
VSB - VISIBILITY IN STATUTE MILES
WCI - WIND CHILL INDEX
HX  - HEAT INDEX



USA.gov is the U.S. government's official web portal to all federal, state and local government web resources and services.